Location: Peterborough
(44.3091°N, 78.3197°W)
Time: 18:02:32
(UTC-04:00)

Explorer 7 - Pass Details

Date: 26 March 2023
Orbit: 477 x 653 km, 50.3° (Epoch: 04 June)

Event Time Altitude Azimuth Distance (km) Brightness Sun altitude
Rises 18:05:20 0° 244° (WSW) 2,910 12.1 14.8°
Reaches altitude 10° 18:07:42 10° 245° (WSW) 1,980 11.7 14.3°
Maximum altitude 18:12:16 81° 333° (NNW) 606 7.3 13.5°
Drops below altitude 10° 18:16:34 10° 61° (ENE) 1,874 9.0 12.8°
Sets 18:18:45 0° 63° (ENE) 2,740 9.8 12.4°
